Location: Unspecified
(0.0000°N, 0.0000°E)
Time: 17:05:15

N. Korean satellite - Pass Details

Date: 08 January 2018
Orbit: 460 x 512 km, 97.2° (Epoch: 22 March)

Event Time Altitude Azimuth Distance (km) Brightness Sun altitude
Rises 19:04:42 0° 197° (SSW) 2,624 10.9 -13.4°
Reaches altitude 10° 19:07:25 10° 219° (SW) 1,736 10.4 -14.0°
Maximum altitude 19:09:48 16° 259° (WSW) 1,379 10.0 -14.5°
Drops below altitude 10° 19:12:11 10° 299° (WNW) 1,727 9.9 -15.1°
Sets 19:14:53 0° 320° (NW) 2,604 10.5 -15.7°
